International Virtual Aviation Organisation

Eastern Europe and Northern Asia MCD

 

Карточка аэропорта UWUU

Внимание!
Информация на этой странице в стадии наполнения.
Если вы не увидели какой-то информации, или заметили неточность - пожалуйста сообщите нам!
Спасибо!
Команда RU-STAFF
Название аэропортаУфа
Название аэропорта (англ.)Ufa
Превышение449 ft. (136.9 m.)
Координаты54°33.6', 55°52.2'
Высота перехода5000ft
Эшелон переходаFL070
Коды ответчика6730-6731
Зона ОрВДСамара РПИ (UWWW)
Данные METARUWUU 110300Z 18003MPS 130V210 9999 BKN040 08/M01 Q1031 R14R/0///60 NOSIG
Проноз погоды (TAF)UWUU 110148Z 1103/1203 18005G10MPS 9999 BKN040 TX17/1111Z TN06/1103Z TEMPO 1103/1106 13003MPS TEMPO 1106/1118 17008G14MPS BKN020
NOTAMshow/hide NOTAM
AWOS   TABLE

Информация о ВПП

ВПП Длина ВПП (м.) Покрытие Курс ВПП Частота ILS
14R3765Бетон138110.3
14L2516Асфальтобетон138108.3
32R2516Асфальтобетон318109.1
32L3765Бетон318 

Диспетчерские позиции

Позывной Наименование органа УВД Частота
UWUU_GNDУфа-Руление119.000
UWUU_TWRУфа-Старт120.900
UWUU_R_APPУфа-Круг124.000
UWUU_APPУфа-Подход126.000



Спутниковое изображение